CAPE
0 0 0 0 0 0 0 0 0 0 0 0 0 0 0 0 0 0 0 0 0 0 0 0 0 0 0 0 0 0 0 8 54 151 294 415 554 597 620 673 758 757 804 676
0 0 0 0 0 0 0 0 0 0 0 0 0 0 0 0 0 0 0 0 0 0 0 0 0 0 0 0 0 0 0 46 192 378 391 500 490 498 664 677 857 893 789 697
0 0 0 0 0 0 0 0 0 0 0 0 0 0 0 0 0 0 0 0 0 0 0 0 0 0 0 0 0 3 46 209 522 650 633 496 319 284 285 242 396 297 341 702
0 0 0 0 0 0 0 0 0 0 0 0 0 0 0 0 0 0 0 0 0 0 0 0 0 0 0 0 0 220 367 668 776 753 768 693 608 572 253 154 117 136 167 262
0 0 0 0 0 0 0 0 0 0 0 0 0 0 0 0 0 0 0 0 0 0 0 0 0 0 0 0 81 442 745 912 914 930 876 742 646 389 200 152 145 142 232 346
0 0 0 0 0 0 0 0 0 0 0 0 0 0 0 0 0 0 0 0 0 0 0 0 0 0 0 16 417 665 845 922 971 950 829 760 674 476 289 201 204 211 222 227
0 0 0 0 0 0 0 0 0 0 0 0 0 0 0 0 0 0 0 0 0 0 0 0 0 0 0 114 496 653 863 896 791 717 571 412 250 228 249 210 222 253 178 112
3 0 0 0 0 0 0 0 0 0 0 0 0 0 0 0 0 0 0 0 0 0 0 0 0 0 11 284 444 570 811 738 555 304 142 87 95 94 86 80 79 66 31 3
0 2 3 0 0 0 0 0 0 0 0 0 0 0 0 0 0 0 0 0 0 0 0 0 0 11 161 358 438 531 554 364 209 104 10 7 18 47 46 27 38 15 3 0
0 0 0 0 0 0 0 0 0 0 0 0 0 0 0 0 0 0 0 0 0 0 0 0 0 130 282 372 437 413 352 216 98 47 21 11 0 8 22 21 21 3 0 0
0 0 0 0 0 0 0 0 0 0 0 0 0 0 0 0 0 0 0 0 0 0 0 0 100 297 290 317 331 296 213 135 68 24 0 0 35 24 6 0 1 0 0 0
0 0 0 0 0 0 0 0 0 0 0 0 0 0 0 0 0 0 0 0 0 0 0 108 294 346 338 319 266 237 134 115 47 0 0 0 9 0 0 3 0 0 0 0
0 0 0 0 2 0 0 0 0 0 0 0 0 0 0 0 0 0 0 0 0 39 163 282 358 347 368 291 313 205 158 89 0 0 4 6 0 0 0 0 0 0 0 0
10 0 0 0 0 0 0 0 8 0 0 0 0 0 0 0 0 0 0 0 0 101 263 349 366 373 352 325 291 140 144 33 0 0 15 1 0 3 0 0 0 0 0 0
1 0 0 0 0 0 0 0 0 0 0 0 0 0 0 0 0 0 0 0 0 63 310 362 360 360 304 304 267 173 154 51 0 5 2 0 2 0 0 0 0 0 1 11
12 0 0 1 0 0 0 0 0 0 0 0 0 0 0 0 0 0 0 0 0 61 348 369 328 348 300 327 308 196 100 54 18 20 4 0 12 0 0 0 0 0 0 14
9 7 2 1 0 1 0 0 0 0 0 0 0 0 0 0 0 0 9 10 22 157 415 378 348 379 309 350 294 191 28 5 20 38 14 20 20 0 0 0 0 0 0 5
1 1 3 0 0 0 0 46 2 0 0 0 0 0 0 0 0 0 12 62 224 320 401 369 363 363 302 255 168 125 0 1 11 31 30 49 33 13 0 0 0 0 0 1
0 0 1 0 0 0 0 18 4 8 0 37 50 40 0 0 0 3 39 24 182 315 355 353 368 346 249 146 54 51 0 12 19 51 67 85 59 35 9 0 0 0 0 1
0 0 0 0 0 0 0 4 2 3 0 7 4 26 0 11 0 0 1 64 71 294 328 366 344 267 198 54 0 0 2 28 21 42 105 104 81 49 21 0 0 0 0 8
0 2 0 0 0 0 0 3 3 2 0 0 3 1 0 0 0 0 0 68 147 263 346 321 287 215 154 13 0 0 2 13 4 50 100 90 65 42 16 0 0 0 11 11
0 0 0 0 0 0 3 0 1 1 1 3 3 2 3 0 4 0 1 50 116 138 198 322 248 165 31 6 0 0 0 0 0 38 97 69 50 53 17 0 0 0 3 0
0 4 0 0 0 0 6 4 8 7 5 4 4 0 0 0 0 0 48 52 16 17 219 261 172 74 15 0 0 0 0 0 0 33 90 91 85 58 38 0 0 0 0 0
2 11 3 0 0 1 7 6 12 6 2 0 1 0 0 0 0 10 16 51 126 139 172 128 81 84 50 0 0 0 0 0 0 20 99 128 105 81 62 0 0 0 0 0
1 0 3 3 5 1 1 4 8 10 0 0 0 0 0 0 0 0 0 29 127 190 193 31 85 81 84 0 0 0 0 0 0 0 104 174 100 96 31 5 0 0 0 0
9 7 12 8 10 3 1 0 8 7 0 2 1 0 0 0 0 0 0 19 159 286 348 151 34 16 9 0 0 0 0 0 0 3 99 182 78 103 3 0 0 0 0 0
CIN
-0 -0 -0 -0 -0 -0 -0 -0 -0 -0 -0 -0 -0 -0 -0 -0 -0 -0 -0 -0 -0 -0 -0 -0 -0 -0 -0 -0 -0 -0 -0 -299 -436 -505 -499 -544 -487 -513 -474 -411 -359 -301 -225 -195
-0 -0 -0 -0 -0 -0 -0 -0 -0 -0 -0 -0 -0 -0 -0 -0 -0 -0 -0 -0 -0 -0 -0 -0 -0 -0 -0 -0 -0 -0 -19 -319 -389 -446 -532 -518 -525 -528 -395 -370 -279 -215 -165 -111
-0 -0 -0 -0 -0 -0 -0 -0 -0 -0 -0 -0 -0 -0 -0 -0 -0 -0 -0 -0 -0 -0 -0 -0 -0 -0 -0 -0 -0 -146 -308 -363 -452 -464 -459 -480 -526 -524 -458 -435 -337 -284 -183 -80
-0 -0 -0 -0 -0 -0 -0 -0 -0 -0 -0 -0 -0 -0 -0 -0 -0 -0 -0 -0 -0 -0 -0 -0 -0 -0 -0 -0 -0 -415 -403 -432 -470 -463 -382 -338 -343 -319 -403 -383 -347 -267 -214 -130
-0 -0 -0 -0 -0 -0 -0 -0 -0 -0 -0 -0 -0 -0 -0 -0 -0 -0 -0 -0 -0 -0 -0 -0 -0 -0 -0 -0 -425 -426 -440 -423 -437 -382 -347 -331 -293 -349 -385 -341 -267 -239 -190 -101
-0 -0 -0 -0 -0 -0 -0 -0 -0 -0 -0 -0 -0 -0 -0 -0 -0 -0 -0 -0 -0 -0 -0 -0 -0 -0 -0 -346 -472 -443 -400 -402 -380 -326 -339 -292 -279 -320 -327 -300 -213 -201 -171 -125
-0 -0 -0 -0 -0 -0 -0 -0 -0 -0 -0 -0 -0 -0 -0 -0 -0 -0 -0 -0 -0 -0 -0 -0 -0 -0 -0 -461 -480 -453 -407 -378 -374 -356 -377 -379 -390 -364 -289 -239 -206 -175 -169 -129
-19 -0 -0 -0 -0 -0 -0 -0 -0 -0 -0 -0 -0 -0 -0 -0 -0 -0 -0 -0 -0 -0 -0 -0 -0 -0 -458 -487 -494 -463 -401 -393 -400 -434 -457 -458 -410 -368 -333 -292 -258 -208 -184 -213
-1 -9 -20 -0 -0 -0 -0 -0 -0 -0 -0 -0 -0 -0 -0 -0 -0 -0 -0 -0 -0 -0 -0 -0 -0 -593 -525 -488 -476 -451 -420 -449 -460 -455 -338 -446 -406 -347 -326 -303 -253 -251 -255 -0
-0 -0 -0 -0 -0 -0 -0 -0 -0 -0 -0 -0 -0 -0 -0 -0 -0 -0 -0 -0 -0 -0 -0 -0 -0 -556 -499 -438 -432 -432 -428 -447 -457 -434 -411 -387 -62 -399 -323 -283 -264 -155 -0 -0
-0 -0 -0 -0 -0 -0 -0 -0 -0 -0 -0 -0 -0 -0 -0 -0 -0 -0 -0 -0 -0 -0 -0 -0 -620 -518 -441 -415 -431 -420 -416 -430 -419 -410 -0 -92 -348 -331 -95 -0 -114 -0 -0 -0
-0 -0 -0 -0 -0 -0 -0 -0 -0 -0 -0 -0 -0 -0 -0 -0 -0 -0 -0 -0 -0 -0 -94 -623 -534 -461 -415 -417 -418 -404 -403 -395 -384 -0 -0 -0 -378 -0 -0 -171 -0 -0 -0 -0
-1 -0 -0 -0 -4 -0 -0 -0 -0 -0 -0 -0 -0 -0 -0 -0 -0 -0 -0 -0 -0 -562 -559 -510 -464 -420 -394 -391 -357 -364 -347 -356 -69 -0 -473 -424 -0 -0 -0 -0 -0 -0 -0 -0
-25 -0 -0 -0 -0 -0 -0 -0 -20 -0 -0 -0 -0 -0 -0 -0 -0 -0 -0 -0 -0 -430 -428 -427 -416 -387 -376 -348 -332 -367 -334 -360 -0 -14 -402 -82 -0 -267 -0 -0 -0 -0 -0 -0
-5 -0 -0 -0 -0 -0 -0 -0 -10 -0 -0 -0 -0 -0 -0 -0 -0 -0 -0 -0 -0 -404 -343 -362 -397 -375 -370 -345 -313 -318 -300 -327 -0 -456 -102 -0 -299 -0 -0 -0 -0 -0 -10 -30
-11 -0 -1 -1 -0 -0 -0 -0 -0 -0 -0 -0 -0 -0 -0 -0 -0 -0 -0 -0 -0 -331 -317 -346 -387 -345 -363 -334 -298 -279 -297 -330 -377 -365 -401 -3 -308 -0 -0 -0 -0 -0 -0 -42
-3 -0 -1 -0 -0 -1 -0 -4 -0 -0 -0 -0 -0 -0 -0 -0 -0 -0 -322 -371 -386 -397 -316 -352 -365 -347 -360 -321 -283 -264 -355 -357 -361 -309 -324 -279 -291 -73 -0 -0 -0 -0 -0 -83
-5 -3 -0 -0 -0 -0 -0 -42 -18 -0 -0 -0 -0 -0 -0 -0 -0 -0 -323 -378 -320 -331 -298 -338 -342 -351 -353 -329 -301 -281 -0 -120 -381 -310 -286 -264 -264 -255 -0 -0 -0 -0 -0 -65
-0 -0 -2 -0 -0 -0 -0 -23 -4 -11 -0 -59 -0 -47 -0 -0 -0 -145 -244 -408 -325 -298 -284 -345 -359 -352 -359 -334 -358 -314 -0 -379 -354 -267 -250 -224 -227 -225 -230 -0 -0 -0 -0 -89
-0 -0 -0 -0 -0 -0 -0 -0 -0 -0 -0 -44 -38 -81 -0 -105 -0 -0 -19 -356 -362 -254 -242 -292 -325 -352 -327 -379 -0 -0 -108 -361 -338 -298 -201 -194 -207 -204 -163 -0 -0 -0 -11 -106
-0 -0 -0 -0 -0 -0 -0 -0 -0 -2 -0 -0 -0 -0 -0 -0 -0 -0 -0 -298 -318 -233 -213 -260 -297 -306 -311 -430 -0 -0 -110 -388 -391 -290 -210 -202 -221 -207 -186 -0 -0 -74 -85 -69
-0 -0 -0 -0 -0 -0 -0 -0 -0 -0 -0 -0 -0 -0 -0 -0 -244 -0 -195 -270 -220 -249 -163 -234 -275 -304 -391 -300 -0 -0 -0 -0 -0 -305 -228 -218 -238 -190 -208 -0 -0 -0 -70 -0
-0 -1 -0 -0 -0 -0 -0 -0 -0 -0 -0 -0 -0 -0 -0 -0 -0 -0 -284 -261 -345 -266 -237 -232 -251 -313 -387 -0 -0 -0 -0 -0 -0 -313 -243 -215 -203 -188 -167 -0 -0 -0 -0 -0
-10 -6 -2 -2 -0 -7 -0 -0 -0 -0 -0 -0 -0 -0 -0 -0 -0 -333 -400 -319 -154 -281 -225 -247 -294 -286 -319 -0 -0 -0 -0 -0 -0 -321 -254 -220 -206 -190 -184 -13 -0 -0 -0 -0
-7 -2 -3 -2 -2 -0 -2 -1 -0 -0 -0 -0 -0 -0 -0 -0 -0 -0 -17 -291 -236 -218 -256 -304 -264 -241 -259 -0 -0 -0 -0 -0 -0 -23 -282 -227 -235 -198 -257 -190 -0 -0 -0 -0
-11 -6 -0 -0 -1 -0 -0 -0 -2 -0 -0 -0 -0 -0 -0 -0 -0 -0 -0 -281 -242 -217 -221 -247 -265 -266 -227 -0 -0 -0 -0 -0 -0 -413 -317 -263 -277 -248 -194 -0 -0 -0 -0 -0
Wind_Speed
32 40 46 42 41 41 37 47 44 41 39 39 49 63 57 51 50 53 53 51 50 42 46 48 47 47 43 35 19 12 13 12 10 11 14 14 12 10 9 6 6 5 5 6
37 50 42 36 40 43 46 48 45 41 38 36 42 53 47 44 45 44 46 46 48 51 47 45 43 41 39 23 14 13 10 10 10 14 16 17 11 10 7 6 6 4 4 4
41 36 41 40 42 42 43 48 47 45 40 45 46 58 51 48 42 40 45 45 43 38 47 46 44 41 29 14 16 10 8 8 9 10 9 10 10 8 9 9 7 6 4 1
36 38 36 38 47 43 50 38 38 40 41 52 36 65 54 54 55 48 45 45 40 38 46 45 43 42 16 19 16 10 8 8 8 3 4 3 5 5 10 7 6 3 2 1
33 28 38 40 38 35 49 43 41 40 43 43 43 44 62 41 54 44 36 49 49 50 46 47 45 13 24 12 9 8 7 7 4 2 1 1 4 8 7 7 6 5 6 4
36 35 30 32 31 30 29 33 37 39 37 50 42 35 61 40 48 44 46 35 43 42 40 37 29 23 15 10 6 4 4 4 2 2 2 3 4 5 6 7 6 7 7 7
35 38 37 32 36 35 33 30 35 40 42 48 30 33 33 20 21 26 27 26 30 33 36 33 26 12 7 4 4 3 1 2 2 2 3 4 5 6 6 5 6 7 8 8
30 32 30 25 34 32 32 33 34 40 40 43 33 39 33 41 46 40 38 36 33 34 35 34 11 7 4 2 1 2 3 4 3 4 4 6 6 6 7 7 7 8 8 8
23 26 21 21 23 25 31 37 34 34 34 35 35 45 55 45 38 42 40 36 33 35 35 8 8 4 2 3 3 5 5 5 5 5 6 7 8 8 7 8 8 9 9 9
21 28 24 25 25 29 30 27 35 35 38 38 36 43 42 32 48 42 38 37 36 37 31 7 3 1 2 5 7 6 6 7 7 8 7 7 8 8 8 8 9 9 10 10
22 25 27 26 27 29 31 35 34 35 40 40 39 39 35 42 37 28 30 32 34 37 11 1 2 4 8 10 9 9 8 9 9 8 7 7 8 8 8 9 9 10 11 12
24 25 33 34 32 33 33 34 34 45 43 49 43 51 31 27 27 30 31 32 32 21 6 3 7 9 11 12 10 10 10 11 9 7 8 8 8 9 9 10 10 9 10 12
22 24 31 30 22 23 31 35 38 38 39 52 51 53 29 28 31 30 31 31 26 16 5 4 7 10 12 12 11 13 12 11 9 8 8 8 9 9 9 10 9 9 10 12
21 23 27 31 31 32 37 36 34 37 48 55 64 58 52 45 37 35 36 30 24 14 8 4 10 10 11 12 15 16 14 11 9 8 9 10 9 9 9 10 8 9 10 12
23 27 25 30 34 37 42 43 46 47 47 49 56 59 47 49 42 38 39 35 25 11 6 7 11 9 11 15 16 15 13 11 10 10 11 11 11 11 10 9 8 8 10 11
23 28 27 32 33 36 43 49 48 50 50 50 51 60 46 44 41 38 37 35 26 11 9 9 11 10 13 17 17 14 12 12 12 12 12 12 12 12 12 12 10 9 9 10
11 16 23 26 25 31 39 41 44 47 44 47 54 49 43 43 41 37 35 33 20 10 12 16 15 13 14 16 16 14 13 13 13 13 13 13 13 14 15 14 12 9 9 10
18 17 22 24 20 29 22 22 30 42 43 46 47 45 46 42 40 36 31 29 21 11 13 15 15 14 13 15 14 13 14 14 14 14 13 13 13 15 15 15 14 11 9 9
19 25 20 20 14 16 26 17 19 28 39 34 38 42 42 43 36 35 25 23 23 13 14 12 13 14 15 16 15 16 15 15 15 15 14 14 15 16 16 15 15 14 12 8
20 26 23 17 13 13 13 19 22 25 37 29 32 34 33 33 43 42 28 23 22 13 12 10 11 12 16 16 16 17 16 17 17 16 16 16 17 16 15 15 15 14 14 12
16 18 19 19 19 16 23 30 25 30 30 28 29 28 31 36 36 32 28 22 23 19 12 11 10 15 20 17 17 17 18 19 19 18 17 17 17 17 16 15 14 15 16 16
5 13 12 13 13 13 27 22 16 24 25 24 24 25 28 31 29 27 26 25 24 21 23 13 12 15 14 17 16 17 21 22 19 19 18 18 18 18 17 17 17 18 18 21
7 7 12 11 8 8 9 16 19 16 16 19 20 21 23 27 26 22 23 23 26 35 21 15 12 10 11 14 16 19 23 21 18 18 20 20 19 19 19 20 20 19 19 20
7 8 10 11 9 12 16 12 16 14 18 19 18 20 22 21 20 19 21 19 15 32 26 18 12 13 12 8 15 22 22 22 21 20 20 21 21 21 21 22 22 22 22 23
7 12 13 12 14 17 12 20 17 14 18 20 22 20 19 17 15 18 23 21 17 18 18 18 14 12 13 9 15 21 24 22 23 23 23 23 24 24 23 24 24 22 22 22
15 15 15 15 20 18 15 14 16 17 16 18 20 21 20 9 9 14 20 18 17 14 15 15 25 28 14 10 18 22 26 25 25 26 26 26 26 26 25 25 25 21 21 22
Wind_Direction
245 243 241 242 246 256 263 259 265 269 269 270 267 266 271 276 274 274 276 278 283 287 283 281 272 280 290 299 299 279 281 288 290 298 300 304 303 302 302 297 297 296 305 305
244 244 248 253 252 255 256 260 263 270 272 277 274 270 275 277 277 279 278 278 276 269 275 268 277 287 290 307 297 279 268 283 289 302 300 308 310 313 318 320 317 316 318 311
246 255 249 252 252 253 256 258 262 266 274 273 277 271 273 274 280 281 276 274 275 284 267 265 279 289 305 304 300 273 281 293 306 313 316 327 334 341 336 332 340 341 340 308
254 252 255 251 251 253 254 260 264 266 267 265 274 268 271 269 271 274 276 273 281 285 267 276 282 288 270 295 302 289 297 305 313 325 319 317 333 338 332 343 353 2 23 4
249 257 248 251 255 257 256 259 261 263 265 270 267 273 261 277 269 276 279 252 266 253 273 270 263 260 311 301 297 293 304 313 316 358 27 19 353 344 355 3 16 22 18 24
253 259 260 255 257 257 260 259 258 259 263 261 263 266 261 275 268 273 248 278 270 271 271 279 289 308 314 309 303 299 309 323 346 7 31 12 360 9 11 9 27 25 25 21
254 255 256 259 255 255 255 255 251 252 252 255 266 258 241 288 291 275 273 277 276 274 267 261 294 309 308 276 281 287 14 72 39 28 23 24 41 30 33 49 38 32 22 21
251 250 252 258 249 249 249 245 248 250 254 255 258 260 258 248 248 249 256 268 276 269 264 244 303 297 295 225 182 152 108 99 72 54 36 33 47 38 43 50 44 29 25 23
258 254 262 258 261 251 249 246 248 260 262 261 256 260 250 244 247 250 260 272 267 273 264 280 306 294 208 188 160 134 118 102 86 78 69 53 45 44 55 49 35 30 31 39
276 260 266 267 267 257 252 253 244 247 249 253 258 256 249 249 231 244 256 272 272 280 293 292 275 212 160 147 136 121 114 110 101 90 72 50 49 51 50 48 36 47 53 58
288 269 266 269 260 255 251 248 248 249 247 250 254 253 251 239 242 263 269 280 285 284 311 124 108 122 126 128 129 124 117 112 106 88 60 47 52 49 52 37 30 44 70 80
294 277 265 265 267 265 258 250 248 243 243 244 251 242 251 253 259 266 277 286 293 302 337 80 112 122 127 128 127 127 124 116 107 78 64 54 61 63 52 36 32 49 65 73
299 281 269 269 272 267 255 252 249 250 249 242 242 233 253 262 264 272 281 288 296 304 321 92 112 126 126 127 130 131 126 117 100 78 71 66 74 68 57 44 39 52 62 78
298 283 272 262 269 267 258 254 247 248 243 242 238 240 245 250 263 273 274 283 292 299 282 125 125 129 125 127 132 131 127 117 99 86 89 92 80 70 54 37 36 66 74 86
271 278 276 275 277 269 259 254 249 247 245 246 244 243 250 249 257 271 268 271 281 289 226 166 139 135 129 132 133 131 127 120 108 99 101 95 78 71 54 24 31 66 78 77
279 278 283 281 277 271 264 257 249 246 245 247 247 244 251 250 255 265 270 270 273 259 202 169 146 141 138 139 138 133 128 125 118 112 99 92 85 77 73 67 55 59 65 68
308 312 296 282 290 288 271 255 246 243 243 244 244 247 249 245 250 264 269 270 268 226 182 160 151 145 142 142 140 137 130 121 121 114 100 100 93 97 91 79 67 60 61 71
183 191 210 235 252 284 287 285 252 241 241 242 247 248 242 243 251 260 265 267 259 228 182 160 148 143 140 137 137 133 129 124 120 112 107 99 97 102 95 87 75 60 56 65
177 203 209 217 211 245 245 285 268 248 238 246 249 247 245 240 249 248 262 266 256 229 208 164 149 143 137 136 135 135 129 127 120 117 111 109 108 109 104 92 87 82 77 56
173 190 190 196 206 225 346 284 278 262 237 246 255 250 244 242 235 236 253 262 251 219 199 169 157 142 136 135 132 133 131 131 128 123 119 115 114 113 110 102 96 90 95 87
145 170 197 223 225 212 283 295 261 238 236 254 253 248 241 235 237 246 247 253 239 226 182 185 169 144 141 136 133 132 133 136 133 125 119 116 112 114 109 104 95 95 97 106
160 237 218 243 204 213 304 289 241 248 251 248 248 246 246 239 239 243 240 239 235 231 224 197 169 145 138 138 135 132 139 138 128 125 122 119 115 109 108 109 108 105 106 137
260 255 268 242 217 232 239 242 269 272 247 241 245 253 249 240 236 242 240 248 239 225 220 209 168 156 146 140 137 137 142 135 127 125 128 124 118 111 113 115 116 116 116 122
239 264 252 262 256 271 288 258 278 269 245 248 249 253 250 237 237 243 248 244 219 216 217 210 168 150 147 160 138 143 137 136 132 132 129 128 124 120 122 125 125 118 133 148
233 277 282 266 286 300 293 292 280 250 258 249 248 247 241 234 250 253 229 222 219 201 204 210 210 204 151 156 139 140 142 136 139 139 138 136 136 136 134 140 144 140 140 137
63 285 294 285 295 287 274 271 268 235 253 253 245 229 213 235 238 216 214 221 215 207 207 211 222 219 223 155 141 143 147 143 144 147 146 142 143 147 149 149 154 167 155 146